Location: Great Snoring
(52.8667°N, 0.8833°E)
Time: 19:14:06
(UTC+00:00)

Cosmos 1408 Rocket - Pass Details

Date: 19 May 2025
Orbit: 594 x 625 km, 82.6° (Epoch: 23 June)

Event Time Altitude Azimuth Distance (km) Brightness Sun altitude
Rises 22:53:50 0° 350° (N) 2,890 8.8 -16.0°
Reaches altitude 10° 22:56:05 10° 352° (N) 1,975 7.5 -16.1°
Maximum altitude 23:00:27 75° 78° (ENE) 634 3.5 -16.3°
Enters shadow 23:02:27 31° 158° (SSE) 1,066 4.2 -16.3°
